Regional Weather Roundup
Issued by NWS Burlington, VT

Home | Current Version | Previous Version | Text Only | Print | Product List | Glossary On
Versions: 1 2 3 4 5 6 7 8 9 10 11 12 13 14 15 16 17 18 19 20 21 22 23 24 25 26 27 28 29 30 31 32 33 34 35 36 37 38 39 40 41 42 43 44 45 46 47 48 49 50
000
ASUS41 KBTV 242110
RWRBTV
VERMONT REGIONAL WEATHER ROUNDUP
NATIONAL WEATHER SERVICE BURLINGTON VT
500 PM EDT THU JUL 24 2014

NOTE: "FAIR" INDICATES FEW OR NO CLOUDS BELOW 12,000 FEET WITH NO
SIGNIFICANT WEATHER AND/OR OBSTRUCTIONS TO VISIBILITY.

* THESE REPORTS ARE NOT UNDER NWS QUALITY CONTROL AND/OR DO NOT
  REPORT WEATHER SUCH AS PRECIPITATION AND FOG.

VTZ001>019-242200-
_____VERMONT_____


CITY           SKY/WX    TMP DP  RH WIND       PRES   REMARKS
BURLINGTON     PTCLDY    73  50  44 N13       29.91F
MONTPELIER     PTCLDY    68  50  52 NW10      29.96S
MORRISVILLE    CLEAR    N/A N/A N/A VRB7      29.93F
ST. JOHNSBURY*   N/A     72  49  44 MISG      29.88S
LYNDONVILLE*   FAIR      68  48  48 NW7       29.93S
MIDDLEBURY*    FAIR      72  54  53 N7        29.90F
RUTLAND*       CLEAR     72  52  49 NW9G16    29.90F
SPRINGFIELD    CLOUDY    76  52  43 NE6       29.88S
HIGHGATE*      FAIR      71  51  49 NW3       29.92S
NEWPORT*       FAIR     N/A N/A N/A W6        29.93S
BENNINGTON     PTCLDY    75  55  49 VRB5      29.89F
SUTTON*          N/A     66 N/A N/A MISG        N/A

_____LAKE CHAMPLAIN_____


CITY           SKY/WX    TMP DP  RH WIND       PRES   REMARKS
COLCHESTER RF*   N/A     70  50  49 N16         N/A
DIAMOND ISL*     N/A     70  52  52 N16         N/A

$$

NYZ007-026>031-035-052-083-242200-
_____NORTHERN NEW YORK_____


CITY           SKY/WX    TMP DP  RH WIND       PRES   REMARKS
PLATTSBURGH    CLEAR     73  50  44 N10       29.91F
SARANAC LAKE   CLEAR     66  46  48 W8        29.95F
MASSENA        CLEAR     71  49  45 W8        29.95F
OGDENSBURG*    CLEAR     75  48  38 N3        29.95F
POTSDAM*       CLEAR     70  52  52 NW5       29.95F
WATERTOWN      CLEAR     74  43  32 NW9       29.96F
FT DRUM        CLEAR     70  45  40 N8        29.96F
ALBANY         MOCLDY    77  56  48 CALM      29.87F
GLENS FALLS    PTCLDY    76  56  49 NE12      29.87F

$$
NHZ002-005-011-242200-
_____NEW HAMPSHIRE_____


CITY           SKY/WX    TMP DP  RH WIND       PRES   REMARKS
LEBANON        PTCLDY    77  51  40 N12       29.87S
KEENE          PTCLDY    75  52  43 NW8       29.86S
MT WASHINGTON  FOG       45  45 100 W28         N/A  VSB 1/8
PLYMOUTH       FAIR      74  54  48 W10G16    29.86R
WHITEFIELD     MOCLDY    72  51  47 NW15      29.89S

$$

_____REGIONAL QUEBEC LOCATIONS_____


CITY           SKY/WX    TMP DP  RH WIND       PRES   REMARKS
MONTREAL       PTCLDY    73  48  40 W15       29.90F
QUEBEC CITY    PTCLDY    73  46  38 W15       29.82F
SHERBROOKE     PTCLDY    68  48  49 N10       29.90F

_____REGIONAL ONTARIO LOCATIONS_____


CITY           SKY/WX    TMP DP  RH WIND       PRES   REMARKS
OTTAWA         PTCLDY    73  52  46 W6        29.94F

______KEY______
VSB  - VISIBILITY IN MILES
WCI  - WIND CHILL INDEX
HX   - HEAT INDEX
$$
NNNN


USA.gov is the U.S. government's official web portal to all federal, state and local government web resources and services.